Location: Wavehorne
(51.0500°N, 0.8333°E)
Time: 18:52:49
(UTC+00:00)

Cosmos 540 Rocket - Pass Details

Date: 20 June 2021
Orbit: 739 x 754 km, 74.1° (Epoch: 30 July)

Event Time Altitude Azimuth Distance (km) Brightness Sun altitude
Exits shadow 01:54:59 15° 219° (SW) 1,943 5.0 -11.2°
Maximum altitude 01:59:12 61° 298° (WNW) 842 3.7 -10.9°
Drops below altitude 10° 02:04:17 10° 19° (NNE) 2,265 7.5 -10.5°
Sets 02:06:41 0° 23° (NNE) 3,194 8.9 -10.3°
